Regional Weather Roundup
Issued by NWS

Home | Current Version | Previous Version | Text Only | Print | Product List | Glossary On
Versions: 1 2 3 4 5 6 7 8 9 10 11 12 13 14 15 16 17 18 19 20 21 22 23 24 25 26 27 28 29 30 31 32 33 34 35 36 37 38 39 40 41 42 43 44 45 46 47 48 49 50
000
ASUS46 KLOX 292313
RWRCA

SOUTHERN CALIFORNIA WEATHER ROUNDUP
NATIONAL WEATHER SERVICE OXNARD CALIFORNIA
400 PM PDT FRI MAY 29 2015

NOTE: "FAIR" INDICATES FEW OR NO CLOUDS BELOW 12,000 FEET WITH NO
SIGNIFICANT WEATHER AND/OR OBSTRUCTIONS TO VISIBILITY.

  -  STATIONS PRECEEDED BY AN ASTERISK (*) ARE NOT NWS OR FAA
     STATIONS AND ARE NOT SUBJECT TO NWS AND FAA QUALITY CONTROL.

CAZ041-042-087-300000-
LA AND ORANGE COUNTY COASTAL AREAS


CITY           SKY/WX    TMP DP  RH WIND       PRES   REMARKS
L.A. DOWNTOWN  SUNNY     73  58  59 CALM      29.89F
L.A. AIRPORT   MOSUNNY   66  57  72 W12       29.91F
LONG BEACH     SUNNY     72  57  59 SE10      29.90F

CITY           SKY/WX    TMP DP  RH WIND       PRES   REMARKS
AVALON           N/A     64 N/A N/A MISG        N/A
FULLERTON      SUNNY     76  56  49 SW8       29.89F
*GETTY CENTER    N/A     72  55  56 S7          N/A
HAWTHORNE      SUNNY     70  57  63 W12       29.91F
*LOS ALAMITOS  MOSUNNY   71  59  65 S12       29.90F
*REDONDO BEACH   N/A     70  58  65 SW3       29.91F
SANTA ANA      PTSUNNY   72  56  57 SW9G16    29.90F
STA MONICA APT MOSUNNY   68  57  68 SW10      29.91F
*STA MON PIER    N/A     62  58  89 W9        29.91F
TORRANCE       MOSUNNY   70  59  68 NW12      29.91F
*UCLA            N/A     68  55  64 S6        29.88S

$$

CAZ547-548-048-300000-
LA COUNTY VALLEYS AND INLAND EMPIRE


CITY           SKY/WX    TMP DP  RH WIND       PRES   REMARKS
BURBANK        SUNNY     84  54  35 SE10      29.88F
VAN NUYS       SUNNY     87  51  28 E8        29.88F

CITY           SKY/WX    TMP DP  RH WIND       PRES   REMARKS
CORONA AIRPORT CLEAR     83  55  37 W10       29.87F
*CHATSWORTH      N/A     88  57  34 E2        29.86F
CHINO          PTSUNNY   88  53  30 W16       29.88F
MARCH AFB      SUNNY     89  50  25 NW13      29.89F
*NORTHRIDGE      N/A     86  48  26 SE3         N/A
ONTARIO        PTSUNNY   88  50  27 W14       29.88F
*PASADENA        N/A     84  59  42 E8          N/A
POMONA         SUNNY     84  50  30 W12       29.93F
RIVERSIDE      SUNNY     88  52  29 W13G20    29.87F
SAN BERNARDINO MOSUNNY   91  41  17 W10       29.88F
*WHITEMAN AP   SUNNY     84  54  34 E7        29.92F
*WOODLAND HILL   N/A     90  50  25 NE3         N/A

$$

CAZ054-055-300000-
LA AND SAN BERNARDINO COUNTY MOUNTAINS


CITY           SKY/WX    TMP DP  RH WIND       PRES   REMARKS
*BIG BEAR AIRP CLEAR     72  28  20 NW8G16    30.20S
SANDBERG       SUNNY     85  29  13 S20G28    30.07F

$$

CAZ028-029-059-060-099-300000-
ANTELOPE VALLEY AND SURROUNDING AREAS


CITY           SKY/WX    TMP DP  RH WIND       PRES   REMARKS
LANCASTER      MOSUNNY   94  28   9 SW22G29   29.91S
PALMDALE       MOSUNNY   93  35  13 W15G24    29.91F

CITY           SKY/WX    TMP DP  RH WIND       PRES   REMARKS
29 PALMS       SUNNY     96  28   9 E8G18     29.93F HX  90
BARSTOW/DAGGET SUNNY    100  19   5 E16G24    29.83F HX  93
BISHOP         MOSUNNY   94  27   9 S14G23    29.92F
CHINA LAKE     PTSUNNY   98  14   4 SE10      29.86F HX  91
MOJAVE         FAIR      93  23   8 SW9       29.93S
NEEDLES        SUNNY    104   3   2 S14G20    29.81F HX  95
VICTORVILLE    SUNNY     95  25   8 SW8G16    29.92F

$$

CAZ039-040-300000-
VENTURA AND SANTA BARBARA COUNTY COAST


CITY           SKY/WX    TMP DP  RH WIND       PRES   REMARKS
CAMARILLO      SUNNY     71  56  58 W6        29.91F
OXNARD AIRPORT MOSUNNY   65  55  70 W8        29.92F
*POINT MUGU    MOSUNNY   67  57  70 SW9       29.92F
SBA APT/GOLETA PTSUNNY   65  55  70 SW12      29.93S
*SANTA BARBARA   N/A     72  55  55 NE5       30.00S
*VENTURA         N/A     72  55  54 SW8       29.53S

$$

CAZ044-045-300000-
VENTURA COUNTY VALLEYS


CITY           SKY/WX    TMP DP  RH WIND       PRES   REMARKS
*SIMI VALLEY     N/A     80  58  45 SW5       29.85F
*OJAI            N/A     87  55  33 W2        29.82F

$$

CAZ053-300000-
VENTURA COUNTY MOUNTAINS


CITY           SKY/WX    TMP DP  RH WIND       PRES   REMARKS

$$

CAZ034-035-036-300000-
CENTRAL COAST AND SANTA YNEZ VALLEY


CITY           SKY/WX    TMP DP  RH WIND       PRES   REMARKS
SAN LUIS OBISP PTSUNNY   69  52  54 VRB5      29.92F
SANTA MARIA    MOSUNNY   65  53  65 NW12      29.94F

CITY           SKY/WX    TMP DP  RH WIND       PRES   REMARKS
*CAL POLY SLO    N/A     72  55  56 SW5G10      N/A
*LOMPOC        MOSUNNY   63  52  67 W18       29.96S
*PISMO BEACH     N/A     57  54  88 SW10      29.95F
*SANTA YNEZ    FAIR      81  48  32 W12       29.90S

$$

CAZ037-038-051-300000-
SAN LUIS OBISPO COUNTY INTERIOR AND CUYAMA VALLEY


CITY           SKY/WX    TMP DP  RH WIND       PRES   REMARKS
*CUYAMA          N/A     89  37  16 NE3       29.80F
PASO ROBLES    SUNNY     92  47  21 S15       29.85F

$$

CAZ032-033-061-300000-
SOUTHERN DESERTS


CITY           SKY/WX    TMP DP  RH WIND       PRES   REMARKS
BLYTHE         SUNNY    101  31   8 S16       29.79F HX  94
IMPERIAL       SUNNY     99  46  16 SE10G17   29.76F HX  95
PALM SPRINGS   SUNNY     99  39  12 E7        29.81F HX  94
THERMAL        SUNNY     99  45  15 S12       29.75F HX  95

$$

ELSEWHERE ACROSS THE WESTERN UNITED STATES AND MEXICO


CITY           SKY/WX    TMP DP  RH WIND       PRES   REMARKS
DENVER, CO     LGT RAIN  56  46  69 N21       30.24R
GRAND CANYON,  PTSUNNY   72  32  23 W5        30.21F
HONOLULU, HI   PTSUNNY   81  66  61 SW7       29.96F
KAHULUI, MAUI  MOSUNNY   82  68  61 N14       29.99F
LAKE TAHOE, CA PTSUNNY   76  35  22 CALM      30.14S
LAS VEGAS, NV  MOSUNNY   98  25   7 SE12      29.83F HX  91
MAMMOTH LAKES, FAIR      79  28  15 W16G24    30.18S
MEXICO CITY, M CLOUDY    64  48  55 NE15      30.24
PHOENIX, AZ    MOSUNNY  101  20   5 CALM      29.81F HX  93
PORTLAND, OR   CLOUDY    82  58  43 W9        29.89F
RENO, NV       PTSUNNY   89  27  10 W10G20    29.98F
SALT LAKE CITY MOSUNNY   76  34  21 N8        30.12F
SAN DIEGO, CA  MOSUNNY   68  55  63 W8        29.93F
SAN FRANCISCO, PTSUNNY   61  51  70 W22       29.96F
SAN JOSE, CA   PTSUNNY   67  53  61 W10       29.94F
SEATTLE, WA    MOSUNNY   78  54  43 S9        29.92F
TIJUANA, MEX   MOSUNNY   70  54  56 W13       29.94F

$$

STATION/POSITION TIME  TEMP    WIND        PRES    VSBY  WAVE
                       AIR SEA DIR/SP/G                  HT/PER
                 (UTC) (F)     (DEG/KT/KT) (MB)    (MI)  (FT/S)
POINT ARGUELLO B NOT AVBL
WEST SANTA BARBA 2250   55 56  310/ 16/ 19 1013.5F         5/14
POINT CONCEPTION NOT AVBL
EAST SANTA BARBA 2200   57 60  240/  4/  6 1014.3F
SANTA MONICA BAY 2250   61 64  310/  4/  6 1013.0F         3/13



USA.gov is the U.S. government's official web portal to all federal, state and local government web resources and services.